This demonstration page uses our WeatherBlox Daily Observations layout. Learn more.

40.92945, -100.16068

Hourly Observations for March 17, 2019

Temp ( °F °C ) Dew Point ( °F °C ) Humidity (%) Winds ( mph kmh ) Pressure ( in mb ) Visibility ( mi km ) Precip ( " mm )
12:15 am 00:15 Clear 33 0.8 21 -6.2 60 60 Calm 30.48 1032 10 16.09344 0 0
12:35 am 00:35 Clear 32 -0.1 23 -5 70 70 Calm 30.48 1032 10 16.09344 0 0
12:55 am 00:55 Clear 32 -0.1 23 -5 70 70 Calm 30.48 1032 10 16.09344 0 0
1:15 am 01:15 Clear 31 -0.6 24 -4.5 75 75 Calm 30.48 1032 10 16.09344 0 0
1:35 am 01:35 Clear 31 -0.7 24 -4.2 77 77 Calm 30.48 1032 10 16.09344 0 0
1:55 am 01:55 Clear 30 -1 25 -4 80 80 Calm 30.48 1032 10 16.09344 0 0
2:15 am 02:15 Clear 30 -0.9 25 -4 80 80 Calm 30.48 1032 10 16.09344 0 0
2:35 am 02:35 Clear 29 -1.5 25 -3.9 84 84 Calm 30.45 1031 10 16.09344 0 0
2:55 am 02:55 Clear 29 -1.5 25 -3.8 85 85 Calm 30.45 1031 10 16.09344 0 0
3:15 am 03:15 Clear 29 -1.5 26 -3.3 88 88 Calm 30.45 1031 10 16.09344 0 0
3:35 am 03:35 Clear 29 -1.7 26 -3.3 89 89 Calm 30.45 1031 10 16.09344 0 0
3:55 am 03:55 Clear 29 -1.8 26 -3.3 90 90 N 3 6 30.45 1031 10 16.09344 0 0
4:15 am 04:15 Clear 28 -2 26 -3.6 89 89 Calm 30.45 1031 10 16.09344 0 0
4:35 am 04:35 Clear 28 -2.4 25 -3.7 91 91 Calm 30.42 1030 10 16.09344 0 0
4:55 am 04:55 Clear 28 -2.3 25 -3.7 90 90 Calm 30.42 1030 10 16.09344 0 0
5:15 am 05:15 Clear 28 -2.3 25 -3.7 90 90 Calm 30.42 1030 10 16.09344 0 0
5:35 am 05:35 Clear 28 -2.2 25 -3.8 89 89 Calm 30.42 1030 10 16.09344 0 0
5:55 am 05:55 Clear 28 -2.5 25 -3.9 90 90 WNW 3 6 30.42 1030 10 16.09344 0 0
6:15 am 06:15 Partly Cloudy 28 -2.5 25 -3.9 90 90 W 5 7 30.42 1030 10 16.09344 0 0
6:35 am 06:35 Partly Cloudy 28 -2.5 25 -3.9 90 90 W 3 6 30.42 1030 10 16.09344 0 0
6:55 am 06:55 Clear 28 -2.5 25 -4 90 90 W 5 7 30.42 1030 10 16.09344 0 0
7:15 am 07:15 Clear 28 -2.5 25 -4 90 90 W 5 7 30.42 1030 10 16.09344 0 0
7:35 am 07:35 Clear 28 -2.5 24 -4.3 88 88 W 3 6 30.48 1032 10 16.09344 0 0
7:55 am 07:55 Sunny 27 -2.7 24 -4.7 86 86 W 6 9 30.48 1032 10 16.09344 0 0
8:15 am 08:15 Sunny 28 -2.5 24 -4.3 88 88 W 3 6 30.48 1032 10 16.09344 0 0
8:35 am 08:35 Sunny 29 -1.4 26 -3.5 86 86 W 5 7 30.45 1031 10 16.09344 0 0
8:55 am 08:55 Sunny 31 -0.3 27 -2.8 83 83 W 3 6 30.45 1031 10 16.09344 0 0
9:15 am 09:15 Sunny 33 0.7 27 -2.6 79 79 WSW 3 6 30.42 1030 10 16.09344 0 0
9:35 am 09:35 Sunny 35 1.5 28 -2.1 77 77 WSW 3 6 30.42 1030 10 16.09344 0 0
9:55 am 09:55 Sunny 37 2.5 29 -1.9 73 73 WSW 6 9 30.42 1030 10 16.09344 0 0
10:15 am 10:15 Sunny 38 3.1 29 -1.8 71 71 WSW 6 9 30.42 1030 10 16.09344 0 0
10:35 am 10:35 Sunny 38 3.6 28 -2 67 67 SW 7 11 30.39 1029 10 16.09344 0 0
10:55 am 10:55 Sunny 40 4.4 28 -2 63 63 WSW 7 11 30.39 1029 10 16.09344 0 0
11:15 am 11:15 Sunny 42 5.4 29 -1.8 60 60 SW 8 13 30.39 1029 10 16.09344 0 0
11:35 am 11:35 Sunny 42 5.7 28 -2.4 56 56 WSW 8 13 30.39 1029 10 16.09344 0 0
11:55 am 11:55 Sunny 44 6.5 27 -2.7 52 52 SW 6 9 30.39 1029 10 16.09344 0 0
12:15 pm 12:15 Sunny 45 7 26 -3.4 48 48 WSW 9 15 30.33 1027 10 16.09344 0 0
12:35 pm 12:35 Sunny 46 7.5 28 -2.3 50 50 SW 13 20 30.33 1027 10 16.09344 0 0
12:55 pm 12:55 Sunny 46 8 29 -1.7 51 51 SW 16 26 30.33 1027 10 16.09344 0 0
1:15 pm 13:15 Sunny 47 8.5 30 -1.1 51 51 WSW 10 17 30.33 1027 10 16.09344 0 0
1:35 pm 13:35 Sunny 49 9.5 31 -0.3 51 51 WSW 10 17 30.3 1026 10 16.09344 0 0
1:55 pm 13:55 Sunny 49 9.6 32 -0.2 51 51 SSW 14 22 30.27 1025 10 16.09344 0 0
2:15 pm 14:15 Sunny 50 9.8 32 0.2 52 52 SW 15 24 30.27 1025 10 16.09344 0 0
2:35 pm 14:35 Sunny 50 10 33 0.7 53 53 SW 15 24 30.27 1025 10 16.09344 0 0
2:55 pm 14:55 Sunny 51 10.7 34 1 51 51 WSW 12 19 30.27 1025 10 16.09344 0 0
3:15 pm 15:15 Sunny 53 11.4 35 1.4 51 51 SW 10 17 30.24 1024 10 16.09344 0 0
3:35 pm 15:35 Sunny 53 11.9 35 1.7 50 50 SW 13 20 30.24 1024 10 16.09344 0 0
3:55 pm 15:55 Sunny 54 12.1 35 1.6 49 49 WSW 8 13 30.21 1023 10 16.09344 0 0
4:15 pm 16:15 Sunny 55 12.6 35 1.5 47 47 WSW 7 11 30.21 1023 10 16.09344 0 0
4:35 pm 16:35 Mostly Cloudy 55 12.6 34 0.9 45 45 W 3 6 30.21 1023 10 16.09344 0 0
4:55 pm 16:55 Mostly Cloudy 55 12.7 33 0.8 44 44 W 5 7 30.21 1023 10 16.09344 0 0
5:15 pm 17:15 Partly Cloudy 57 13.8 34 1.1 42 42 NNW 16 26 30.21 1023 10 16.09344 0 0
5:35 pm 17:35 Partly Cloudy 56 13.2 33 0.4 42 42 NNW 13 20 30.21 1023 10 16.09344 0 0
5:55 pm 17:55 Sunny 56 13.1 32 0.1 41 41 N 15 24 30.21 1023 10 16.09344 0 0
6:15 pm 18:15 Sunny 54 12.4 33 0.4 44 44 N 15 24 30.21 1023 10 16.09344 0 0
6:35 pm 18:35 Sunny 53 11.4 33 0.7 48 48 N 15 24 30.27 1025 10 16.09344 0 0
6:55 pm 18:55 Sunny 51 10.3 32 0.2 50 50 N 16 26 30.27 1025 10 16.09344 0 0
7:15 pm 19:15 Sunny 49 9.5 33 0.3 53 53 N 17 28 30.27 1025 10 16.09344 0 0
7:35 pm 19:35 Sunny 47 8.3 32 0 56 56 N 14 22 30.33 1027 10 16.09344 0 0
7:55 pm 19:55 Clear 45 7 32 0.2 62 62 N 10 17 30.33 1027 10 16.09344 0 0
8:15 pm 20:15 Clear 44 6.8 31 -0.7 59 59 NNE 12 19 30.33 1027 10 16.09344 0 0
8:35 pm 20:35 Clear 43 6.2 30 -1.1 60 60 NNE 13 20 30.39 1029 10 16.09344 0 0
8:55 pm 20:55 Clear 42 5.5 30 -1 63 63 NNE 15 24 30.39 1029 10 16.09344 0 0
9:15 pm 21:15 Clear 40 4.6 31 -0.8 68 68 NNE 12 19 30.39 1029 10 16.09344 0 0
9:35 pm 21:35 Clear 39 4.1 30 -1.2 69 69 NNE 13 20 30.42 1030 10 16.09344 0 0
9:55 pm 21:55 Clear 38 3.2 29 -1.6 71 71 NNE 10 17 30.45 1031 10 16.09344 0 0
10:15 pm 22:15 Clear 37 2.6 28 -2.2 71 71 NNE 10 17 30.45 1031 10 16.09344 0 0
10:35 pm 22:35 Clear 36 2.1 28 -2.5 72 72 NE 10 17 30.48 1032 10 16.09344 0 0
10:55 pm 22:55 Clear 35 1.7 27 -2.7 73 73 NNE 8 13 30.48 1032 10 16.09344 0 0
11:15 pm 23:15 Clear 34 1.1 27 -2.8 76 76 NE 7 11 30.48 1032 10 16.09344 0 0
11:35 pm 23:35 Clear 33 0.6 27 -2.7 79 79 NNE 8 13 30.5 1033 10 16.09344 0 0
11:55 pm 23:55 Clear 33 0.8 27 -3 76 76 NNE 6 9 30.5 1033 10 16.09344 0 0

Powered by AerisWeather